Location: Poughquag
(41.6090°N, 73.6820°W)
Time: 03:31:14
(UTC-04:00)

S-56A Canister/Altair - Pass Details

Date: 02 June 2020
Orbit: 633 x 2499 km, 38.9° (Epoch: 06 July)

Event Time Altitude Azimuth Distance (km) Brightness Sun altitude
Rises 10:14:09 0° 281° (W) 4,297 11.0 51.7°
Reaches altitude 10° 10:16:51 10° 274° (W) 3,555 10.7 52.1°
Maximum altitude 10:25:36 43° 207° (SSW) 2,460 10.6 53.7°
Drops below altitude 10° 10:37:46 10° 143° (SE) 4,899 12.3 55.8°
Sets 10:42:14 0° 138° (SE) 6,054 12.6 56.6°
